Time,TemperatureF,DewpointF,PressureIn,WindDirection,WindDirectionDegrees,WindSpeedMPH,WindSpeedGustMPH,Humidity,HourlyPrecipIn,Conditions,Clouds,dailyrainin,SoftwareType,DateUTC
2013-08-06 00:01:00,86.0,54.0,29.81,East,88,4.0,-999.0,34,-99.99,,,-99.99,,2013-08-06 07:01:00,
2013-08-06 00:11:00,86.0,54.0,29.81,East,88,4.0,-999.0,34,-99.99,,,-99.99,,2013-08-06 07:11:00,
2013-08-06 00:22:00,87.0,54.0,29.80,East,80,4.0,-999.0,33,-99.99,,,-99.99,,2013-08-06 07:22:00,
2013-08-06 00:32:00,88.0,50.0,29.80,ESE,107,5.0,-999.0,27,-99.99,,,-99.99,,2013-08-06 07:32:00,
2013-08-06 00:53:00,87.0,53.0,29.80,East,90,5.0,-999.0,31,-99.99,,,-99.99,,2013-08-06 07:53:00,
2013-08-06 01:01:00,86.0,53.0,29.80,East,92,2.0,-999.0,32,-99.99,,,-99.99,,2013-08-06 08:01:00,
2013-08-06 01:11:00,86.0,53.0,29.80,East,92,2.0,-999.0,32,-99.99,,,-99.99,,2013-08-06 08:11:00,
2013-08-06 01:21:00,86.0,53.0,29.80,East,84,4.0,-999.0,32,-99.99,,,-99.99,,2013-08-06 08:21:00,
2013-08-06 01:33:00,86.0,53.0,29.80,East,91,5.0,-999.0,32,-99.99,,,-99.99,,2013-08-06 08:33:00,
2013-08-06 01:52:00,87.0,53.0,29.80,ESE,102,5.0,-999.0,31,-99.99,,,-99.99,,2013-08-06 08:52:00,
2013-08-06 02:01:00,86.0,54.0,29.80,East,98,3.0,-999.0,34,-99.99,,,-99.99,,2013-08-06 09:01:00,
2013-08-06 02:11:00,86.0,54.0,29.80,East,98,3.0,-999.0,34,-99.99,,,-99.99,,2013-08-06 09:11:00,
2013-08-06 02:22:00,85.0,55.0,29.79,East,98,0.0,-999.0,36,-99.99,,,-99.99,,2013-08-06 09:22:00,
2013-08-06 02:32:00,84.0,56.0,29.79,East,93,4.0,-999.0,38,-99.99,,,-99.99,,2013-08-06 09:32:00,
2013-08-06 02:43:00,84.0,56.0,29.79,East,93,4.0,-999.0,38,-99.99,,,-99.99,,2013-08-06 09:43:00,
2013-08-06 02:52:00,84.0,60.0,29.80,East,93,1.0,-999.0,44,-99.99,,,-99.99,,2013-08-06 09:52:00,
2013-08-06 03:01:00,84.0,56.0,29.79,East,92,1.0,-999.0,39,-99.99,,,-99.99,,2013-08-06 10:01:00,
2013-08-06 03:11:00,84.0,56.0,29.79,East,92,1.0,-999.0,39,-99.99,,,-99.99,,2013-08-06 10:11:00,
2013-08-06 03:22:00,84.0,56.0,29.79,East,92,0.0,-999.0,39,-99.99,,,-99.99,,2013-08-06 10:22:00,
2013-08-06 03:32:00,85.0,57.0,29.79,East,90,1.0,-999.0,39,-99.99,,,-99.99,,2013-08-06 10:32:00,
2013-08-06 03:42:00,85.0,57.0,29.79,East,90,1.0,-999.0,39,-99.99,,,-99.99,,2013-08-06 10:42:00,
2013-08-06 03:52:00,85.0,57.0,29.79,East,90,1.0,-999.0,38,-99.99,,,-99.99,,2013-08-06 10:52:00,
2013-08-06 04:21:00,85.0,59.0,29.79,East,89,2.0,-999.0,41,-99.99,,,-99.99,,2013-08-06 11:21:00,
2013-08-06 04:32:00,84.0,60.0,29.79,East,89,0.0,-999.0,44,-99.99,,,-99.99,,2013-08-06 11:32:00,
2013-08-06 04:43:00,83.0,60.0,29.80,East,86,2.0,-999.0,46,-99.99,,,-99.99,,2013-08-06 11:43:00,
2013-08-06 04:53:00,83.0,60.0,29.80,East,86,2.0,-999.0,46,-99.99,,,-99.99,,2013-08-06 11:53:00,
2013-08-06 05:01:00,83.0,59.0,29.80,East,82,1.0,-999.0,44,-99.99,,,-99.99,,2013-08-06 12:01:00,
2013-08-06 05:11:00,83.0,59.0,29.80,East,82,1.0,-999.0,44,-99.99,,,-99.99,,2013-08-06 12:11:00,
2013-08-06 05:21:00,83.0,59.0,29.80,NE,40,1.0,-999.0,44,-99.99,,,-99.99,,2013-08-06 12:21:00,
2013-08-06 05:31:00,83.0,59.0,29.80,NE,40,1.0,-999.0,44,-99.99,,,-99.99,,2013-08-06 12:31:00,
2013-08-06 07:21:00,80.0,65.0,29.85,NE,51,0.0,-999.0,61,-99.99,,,-99.99,,2013-08-06 14:21:00,
2013-08-06 07:32:00,80.0,64.0,29.85,NE,51,0.0,-999.0,59,-99.99,,,-99.99,,2013-08-06 14:32:00,
2013-08-06 07:42:00,80.0,64.0,29.85,NE,51,0.0,-999.0,59,-99.99,,,-99.99,,2013-08-06 14:42:00,
2013-08-06 07:53:00,80.0,64.0,29.85,NE,51,0.0,-999.0,59,-99.99,,,-99.99,,2013-08-06 14:53:00,
2013-08-06 08:02:00,80.0,64.0,29.85,NE,51,0.0,-999.0,59,-99.99,,,-99.99,,2013-08-06 15:02:00,
2013-08-06 08:11:00,80.0,64.0,29.85,NE,51,0.0,-999.0,59,-99.99,,,-99.99,,2013-08-06 15:11:00,
2013-08-06 08:44:00,81.0,69.0,29.89,NE,51,0.0,-999.0,66,-99.99,,,-99.99,,2013-08-06 15:44:00,
2013-08-06 08:52:00,81.0,69.0,29.89,NE,51,0.0,-999.0,66,-99.99,,,-99.99,,2013-08-06 15:52:00,
2013-08-06 09:01:00,83.0,70.0,29.89,NE,51,0.0,-999.0,66,-99.99,,,-99.99,,2013-08-06 16:01:00,
2013-08-06 09:11:00,83.0,70.0,29.89,NE,51,0.0,-999.0,66,-99.99,,,-99.99,,2013-08-06 16:11:00,
2013-08-06 09:22:00,85.0,70.0,29.90,ESE,119,3.0,-999.0,62,-99.99,,,-99.99,,2013-08-06 16:22:00,
2013-08-06 09:32:00,88.0,68.0,29.90,ESE,108,8.0,-999.0,51,-99.99,,,-99.99,,2013-08-06 16:32:00,
2013-08-06 09:52:00,88.0,68.0,29.91,ESE,111,9.0,-999.0,52,-99.99,,,-99.99,,2013-08-06 16:52:00,
2013-08-06 10:01:00,89.0,68.0,29.91,ESE,110,10.0,-999.0,50,-99.99,,,-99.99,,2013-08-06 17:01:00,
2013-08-06 10:11:00,89.0,68.0,29.91,ESE,110,10.0,-999.0,50,-99.99,,,-99.99,,2013-08-06 17:11:00,
2013-08-06 10:21:00,91.0,68.0,29.91,ESE,103,9.0,-999.0,47,-99.99,,,-99.99,,2013-08-06 17:21:00,
2013-08-06 10:32:00,91.0,68.0,29.91,ESE,103,9.0,-999.0,47,-99.99,,,-99.99,,2013-08-06 17:32:00,
2013-08-06 10:43:00,91.0,66.0,29.91,ESE,111,10.0,-999.0,44,-99.99,,,-99.99,,2013-08-06 17:43:00,
2013-08-06 10:52:00,91.0,66.0,29.91,ESE,111,10.0,-999.0,44,-99.99,,,-99.99,,2013-08-06 17:52:00,
2013-08-06 11:01:00,93.0,66.0,29.91,ESE,122,8.0,-999.0,42,-99.99,,,-99.99,,2013-08-06 18:01:00,
2013-08-06 11:11:00,93.0,66.0,29.91,ESE,122,8.0,-999.0,42,-99.99,,,-99.99,,2013-08-06 18:11:00,
2013-08-06 11:21:00,93.0,64.0,29.91,SE,133,10.0,-999.0,39,-99.99,,,-99.99,,2013-08-06 18:21:00,
2013-08-06 11:32:00,94.0,65.0,29.90,SE,139,9.0,-999.0,39,-99.99,,,-99.99,,2013-08-06 18:32:00,
2013-08-06 11:52:00,97.0,67.0,29.90,SSE,153,9.0,-999.0,38,-99.99,,,-99.99,,2013-08-06 18:52:00,
2013-08-06 12:01:00,97.0,66.0,29.90,SE,133,10.0,-999.0,37,-99.99,,,-99.99,,2013-08-06 19:01:00,
2013-08-06 12:21:00,96.0,65.0,29.89,SSE,148,11.0,-999.0,37,-99.99,,,-99.99,,2013-08-06 19:21:00,
2013-08-06 12:32:00,96.0,68.0,29.89,SE,143,12.0,-999.0,40,-99.99,,,-99.99,,2013-08-06 19:32:00,
2013-08-06 12:52:00,94.0,66.0,29.88,SE,127,15.0,-999.0,40,-99.99,,,-99.99,,2013-08-06 19:52:00,
2013-08-06 13:11:00,95.0,65.0,29.88,SSE,157,12.0,-999.0,38,-99.99,,,-99.99,,2013-08-06 20:11:00,
2013-08-06 13:22:00,97.0,65.0,29.88,SE,128,10.0,-999.0,35,-99.99,,,-99.99,,2013-08-06 20:22:00,
2013-08-06 13:43:00,97.0,66.0,29.86,ESE,117,12.0,-999.0,36,-99.99,,,-99.99,,2013-08-06 20:43:00,
2013-08-06 13:52:00,97.0,66.0,29.86,ESE,117,12.0,-999.0,36,-99.99,,,-99.99,,2013-08-06 20:52:00,
2013-08-06 14:22:00,98.0,66.0,29.85,SE,127,8.0,-999.0,35,-99.99,,,-99.99,,2013-08-06 21:22:00,
2013-08-06 14:43:00,100.0,64.0,29.84,SE,129,8.0,-999.0,31,-99.99,,,-99.99,,2013-08-06 21:43:00,
2013-08-06 14:52:00,100.0,64.0,29.84,SE,129,8.0,-999.0,31,-99.99,,,-99.99,,2013-08-06 21:52:00,
2013-08-06 15:21:00,99.0,62.0,29.83,ESE,104,9.0,-999.0,30,-99.99,,,-99.99,,2013-08-06 22:21:00,
2013-08-06 15:32:00,101.0,64.0,29.83,SE,140,5.0,-999.0,30,-99.99,,,-99.99,,2013-08-06 22:32:00,
2013-08-06 15:52:00,102.0,63.0,29.82,ESE,121,5.0,-999.0,28,-99.99,,,-99.99,,2013-08-06 22:52:00,
2013-08-06 16:01:00,101.0,62.0,29.81,SE,126,6.0,-999.0,28,-99.99,,,-99.99,,2013-08-06 23:01:00,
2013-08-06 16:22:00,103.0,60.0,29.81,WSW,245,3.0,-999.0,25,-99.99,,,-99.99,,2013-08-06 23:22:00,
2013-08-06 16:32:00,104.0,60.0,29.80,SSW,193,3.0,-999.0,24,-99.99,,,-99.99,,2013-08-06 23:32:00,
2013-08-06 16:42:00,104.0,61.0,29.80,WSW,241,4.0,-999.0,25,-99.99,,,-99.99,,2013-08-06 23:42:00,
2013-08-06 16:52:00,104.0,61.0,29.80,WSW,241,4.0,-999.0,25,-99.99,,,-99.99,,2013-08-06 23:52:00,
2013-08-06 17:01:00,104.0,63.0,29.80,East,93,2.0,-999.0,27,-99.99,,,-99.99,,2013-08-07 00:01:00,
2013-08-06 17:11:00,103.0,62.0,29.79,SSE,162,2.0,-999.0,27,-99.99,,,-99.99,,2013-08-07 00:11:00,
2013-08-06 17:21:00,103.0,62.0,29.79,SSE,162,2.0,-999.0,27,-99.99,,,-99.99,,2013-08-07 00:21:00,
2013-08-06 17:32:00,103.0,59.0,29.79,SSW,200,6.0,-999.0,24,-99.99,,,-99.99,,2013-08-07 00:32:00,
2013-08-06 17:43:00,102.0,65.0,29.79,SE,144,6.0,-999.0,30,-99.99,,,-99.99,,2013-08-07 00:43:00,
2013-08-06 17:52:00,102.0,65.0,29.79,SE,144,6.0,-999.0,30,-99.99,,,-99.99,,2013-08-07 00:52:00,
2013-08-06 18:21:00,102.0,61.0,29.78,SE,141,3.0,-999.0,26,-99.99,,,-99.99,,2013-08-07 01:21:00,
2013-08-06 18:52:00,101.0,60.0,29.78,SSW,201,2.0,-999.0,26,-99.99,,,-99.99,,2013-08-07 01:52:00,
2013-08-06 19:21:00,100.0,61.0,29.79,South,180,4.0,-999.0,28,-99.99,,,-99.99,,2013-08-07 02:21:00,
2013-08-06 19:33:00,99.0,61.0,29.79,SSW,199,3.0,-999.0,29,-99.99,,,-99.99,,2013-08-07 02:33:00,
2013-08-06 19:43:00,98.0,62.0,29.79,SSW,211,1.0,-999.0,31,-99.99,,,-99.99,,2013-08-07 02:43:00,
2013-08-06 19:53:00,98.0,62.0,29.79,SSW,211,1.0,-999.0,31,-99.99,,,-99.99,,2013-08-07 02:53:00,
2013-08-06 20:01:00,96.0,61.0,29.79,WSW,242,2.0,-999.0,32,-99.99,,,-99.99,,2013-08-07 03:01:00,
2013-08-06 20:22:00,96.0,61.0,29.80,SW,217,1.0,-999.0,32,-99.99,,,-99.99,,2013-08-07 03:22:00,
2013-08-06 20:32:00,95.0,61.0,29.80,SW,226,1.0,-999.0,33,-99.99,,,-99.99,,2013-08-07 03:32:00,
2013-08-06 20:43:00,94.0,60.0,29.80,SSW,203,4.0,-999.0,33,-99.99,,,-99.99,,2013-08-07 03:43:00,
2013-08-06 20:52:00,94.0,60.0,29.80,SSW,203,4.0,-999.0,33,-99.99,,,-99.99,,2013-08-07 03:52:00,
2013-08-06 21:01:00,94.0,61.0,29.81,SSW,202,3.0,-999.0,34,-99.99,,,-99.99,,2013-08-07 04:01:00,
2013-08-06 21:11:00,94.0,61.0,29.81,SSW,202,3.0,-999.0,34,-99.99,,,-99.99,,2013-08-07 04:11:00,
2013-08-06 21:21:00,94.0,61.0,29.82,SSW,212,3.0,-999.0,34,-99.99,,,-99.99,,2013-08-07 04:21:00,
2013-08-06 21:33:00,93.0,61.0,29.82,SW,215,3.0,-999.0,35,-99.99,,,-99.99,,2013-08-07 04:33:00,
2013-08-06 21:42:00,93.0,61.0,29.82,SW,215,3.0,-999.0,35,-99.99,,,-99.99,,2013-08-07 04:42:00,
2013-08-06 21:52:00,93.0,62.0,29.83,SSW,201,2.0,-999.0,36,-99.99,,,-99.99,,2013-08-07 04:52:00,
2013-08-06 22:02:00,92.0,62.0,29.83,SSW,202,1.0,-999.0,37,-99.99,,,-99.99,,2013-08-07 05:02:00,
2013-08-06 22:11:00,92.0,62.0,29.83,SSW,202,1.0,-999.0,37,-99.99,,,-99.99,,2013-08-07 05:11:00,
2013-08-06 22:22:00,92.0,63.0,29.83,SSW,202,0.0,-999.0,38,-99.99,,,-99.99,,2013-08-07 05:22:00,
2013-08-06 22:32:00,91.0,62.0,29.83,SSW,202,1.0,-999.0,38,-99.99,,,-99.99,,2013-08-07 05:32:00,
2013-08-06 22:43:00,91.0,62.0,29.83,SSW,211,2.0,-999.0,38,-99.99,,,-99.99,,2013-08-07 05:43:00,
2013-08-06 22:52:00,91.0,62.0,29.83,SSW,211,2.0,-999.0,38,-99.99,,,-99.99,,2013-08-07 05:52:00,
2013-08-06 23:02:00,90.0,61.0,29.84,SSW,212,0.0,-999.0,38,-99.99,,,-99.99,,2013-08-07 06:02:00,
2013-08-06 23:11:00,90.0,61.0,29.84,SSW,212,0.0,-999.0,38,-99.99,,,-99.99,,2013-08-07 06:11:00,
2013-08-06 23:32:00,87.0,62.0,29.84,SSE,159,3.0,-999.0,44,-99.99,,,-99.99,,2013-08-07 06:32:00,
2013-08-06 23:52:00,88.0,62.0,29.85,SSE,161,2.0,-999.0,42,-99.99,,,-99.99,,2013-08-07 06:52:00,